Tracking 30995 objects as of 7-Jul-2025
HD Live streaming from Space Station
objects crossing your sky now

STARLINK-30165

Track STARLINK-30165 now!
10-day predictions
STARLINK-30165 is classified as:


NORAD ID: 57457
Int'l Code: 2023-107A
Perigee: 565.1 km
Apogee: 567.4 km
Inclination: 43.0 °
Period: 95.8 minutes
Semi major axis: 6937 km
RCS: Unknown
Launch date: July 28, 2023
Source: (TBD)
Launch site: AIR FORCE EASTERN TEST RANGE (AFETR)
Your satellite tracking list
OPS 6157
Track 1 satellite(s)




NASA's NSSDC Master Catalog

Two Line Element Set (TLE):
1 57457U 23107A   25187.47783219 -.00000248  00000-0 -33113-5 0  9997
2 57457  43.0026 237.0834 0001644 275.6818  84.3837 15.02537581107732
Source of the keplerian elements: AFSPC